User: anonymous   Login
Location: Mentone
(34.5413°N, 85.5351°W)
Time: 22:04:32
(UTC-05:00)
Language:

Cosmos 1703 - Orbit

View from above orbital plane
View from above orbital plane
View from above satellite
View from above satellite

Ground track
Ground track

The orbit data is extracted from the following two-line orbital elements,

1 16262U 85108A   16150.41859903  .00000805  00000-0  48043-4 0  9997
2 16262  82.4740 266.6694 0010358 149.8078 210.3750 15.09706416660983
Epoch (UTC): 29 May 2016 10:02:46
Eccentricity: 0.0010358
inclination: 82.4740°
perigee height: 530 km
apogee height: 544 km
right ascension of ascending node: 266.6694°
argument of perigee: 149.8078°
revolutions per day: 15.09706416
mean anomaly at epoch: 210.3750°
orbit number at epoch: 66098

The dashed part of the orbit path shows where the satellite is in the earth's shadow,  

DLR